sat.trackr.live / text

‹ back to catalog

STARLINK-1423

NORAD 45710 · 2020-035BF

PAYLOAD ACTIVE UNKNOWN

§ Identity

Operator
Country
US
Launch date
2020-06-04
Launch site
AFETR
Launch vehicle
Mass (kg)
RCS (m²)

Purposes: comms

External: N2YO · Heavens-Above · Gunter

§ Orbital elements

Epoch: 2026-05-25T00:47:27.682656Z

Period
91.87 min
Inclination
53.0453°
Eccentricity
0.0007107
Mean motion
15.67383859 rev/d
Perigee alt
361.6 km
Apogee alt
371.2 km
Semi-major
6,744.5 km
B*
4.8143e-4
RAAN
9.5025°
Arg perigee
64.6815°
Mean anomaly
295.4936°
Rev number
33,127

§ Raw data

STARLINK-14231 45710U 20035BF  26145.03295929  .00052847  00000+0  48143-3 0  99922 45710  53.0453   9.5025 0007107  64.6815 295.4936 15.67383859331274

JSON: /api/v1/satellites/45710 · /tle

For live sub-satellite position, see the globe view (requires WebGL).

§ Visibility from observer

Set your observer location to see the next 7 days of passes ≥ 10°. The values pass through the URL so the page stays shareable.

No JS? Fill the form by hand. The geolocation button needs JavaScript.